Regional Weather Roundup
Issued by NWS

Home | Current Version | Previous Version | Graphics & Text | Print | Product List | Glossary On
Versions: 1 2 3 4 5 6 7 8 9 10 11 12 13 14 15 16 17 18 19 20 21 22 23 24 25 26 27 28 29 30 31 32 33 34 35 36 37 38 39 40 41 42 43 44 45 46 47 48 49 50
000
ASUS43 KBIS 010320
RWRND

NORTH DAKOTA REGIONAL WEATHER ROUNDUP
NATIONAL WEATHER SERVICE BISMARCK ND
1000 PM CDT TUE SEP 30 2014

NOTE: "FAIR" INDICATES FEW OR NO CLOUDS BELOW 12,000 FEET WITH NO
SIGNIFICANT WEATHER AND/OR OBSTRUCTIONS TO VISIBILITY.


NDZ001>003-009>011-017-010400-
NORTHWEST NORTH DAKOTA

CITY           SKY/WX    TMP DP  RH WIND       PRES   REMARKS
WILLISTON      CLOUDY    51  49  92 NE3       29.50F
MINOT          LGT RAIN  51  49  92 NE8       29.46F
MINOT AFB      LGT RAIN  52  52 100 E9        29.45F
$$

NDZ018>021-031>035-040>046-010400-
SOUTHWEST NORTH DAKOTA

CITY           SKY/WX    TMP DP  RH WIND       PRES   REMARKS
BISMARCK       CLOUDY    55  55 100 W9        29.39R
DICKINSON      CLOUDY    51  49  92 NW12      29.48S
GARRISON         N/A     52  50  93 NE6       29.42F
HETTINGER ARPT CLOUDY    52  50  93 W15       29.54R
$$

NDZ004>008-012>016-024-026-027-054-010400-
NORTHEAST NORTH DAKOTA

CITY           SKY/WX    TMP DP  RH WIND       PRES   REMARKS
GRAND FORKS    CLOUDY    57  47  69 SE21G32   29.60F
GRND FRKS AFB  CLOUDY    55  50  82 SE14G24   29.58F
DEVILS LAKE    CLOUDY    55  46  71 SE22G30   29.48F
$$

NDZ022-023-025-028>030-036>039-047>053-010400-
SOUTHEAST NORTH DAKOTA

CITY           SKY/WX    TMP DP  RH WIND       PRES   REMARKS
FARGO          LGT RAIN  58  50  75 SE23G35   29.61F
JAMESTOWN      LGT RAIN  57  54  89 SE23G37   29.47F
$$




USA.gov is the U.S. government's official web portal to all federal, state and local government web resources and services.